QPF
0.15 0.14 0.12 0.10 0.08 0.07 0.07 0.05 0.06 0.07 0.07 0.06 0.05 0.05 0.05 0.06 0.07 0.07 0.06 0.07 0.08 0.07 0.08 0.07 0.07 0.07 0.09 0.09 0.09 0.08 0.07 0.06 0.05 0.02 0.02 0.03 0.04 0.04 0.05 0.05 0.04 0.04 0.04
0.07 0.07 0.07 0.07 0.07 0.08 0.09 0.08 0.08 0.08 0.09 0.09 0.09 0.10 0.09 0.08 0.07 0.06 0.06 0.06 0.07 0.07 0.06 0.05 0.04 0.05 0.05 0.05 0.05 0.04 0.04 0.05 0.05 0.03 0.01 0.02 0.02 0.02 0.03 0.03 0.03 0.03 0.03
0.04 0.03 0.03 0.03 0.05 0.06 0.06 0.06 0.06 0.07 0.09 0.12 0.15 0.17 0.16 0.12 0.09 0.07 0.07 0.07 0.06 0.04 0.04 0.04 0.04 0.04 0.03 0.03 0.02 0.02 0.03 0.03 0.03 0.02 0.01 0.01 0.01 0.01 0.02 0.02 0.03 0.04 0.03
0.03 0.03 0.04 0.04 0.04 0.04 0.03 0.03 0.04 0.05 0.08 0.09 0.11 0.12 0.12 0.10 0.07 0.05 0.05 0.04 0.04 0.03 0.03 0.03 0.03 0.04 0.04 0.04 0.04 0.03 0.03 0.02 0.03 0.03 0.02 0.02 0.02 0.02 0.02 0.02 0.02 0.04 0.04
0.03 0.04 0.04 0.03 0.03 0.02 0.02 0.02 0.02 0.03 0.03 0.04 0.04 0.05 0.05 0.06 0.05 0.03 0.02 0.02 0.02 0.03 0.02 0.02 0.02 0.02 0.02 0.02 0.02 0.02 0.01 0.01 0.02 0.03 0.03 0.03 0.02 0.02 0.02 0.02 0.02 0.02 0.04
0.03 0.04 0.03 0.03 0.02 0.02 0.01 0.02 0.01 0.02 0.02 0.03 0.04 0.04 0.05 0.06 0.06 0.04 0.02 0.02 0.02 0.02 0.02 0.02 0.01 0.01 0.01 0.01 0.02 0.01 0.01 0.01 0.01 0.02 0.03 0.04 0.03 0.03 0.02 0.02 0.02 0.02 0.03
0.03 0.03 0.02 0.02 0.01 0.02 0.02 0.02 0.02 0.02 0.02 0.02 0.03 0.03 0.04 0.04 0.05 0.05 0.03 0.02 0.02 0.02 0.03 0.03 0.02 0.01 0.01 0.01 0.01 0.01 0.00 0.01 0.01 0.01 0.02 0.03 0.03 0.03 0.03 0.03 0.04 0.04 0.03
0.02 0.02 0.02 0.02 0.01 0.01 0.03 0.03 0.03 0.03 0.02 0.02 0.02 0.02 0.02 0.03 0.04 0.05 0.03 0.03 0.04 0.04 0.03 0.03 0.03 0.03 0.03 0.02 0.01 0.01 0.00 0.01 0.01 0.01 0.01 0.02 0.03 0.03 0.02 0.02 0.03 0.04 0.03
0.02 0.01 0.01 0.01 0.01 0.01 0.01 0.02 0.02 0.02 0.02 0.02 0.02 0.02 0.02 0.02 0.03 0.03 0.03 0.03 0.04 0.05 0.05 0.05 0.03 0.03 0.04 0.04 0.03 0.03 0.02 0.01 0.01 0.01 0.01 0.02 0.03 0.03 0.03 0.03 0.03 0.03 0.03
0.02 0.02 0.02 0.01 0.01 0.01 0.02 0.02 0.02 0.02 0.02 0.01 0.01 0.02 0.01 0.01 0.02 0.03 0.05 0.05 0.05 0.05 0.06 0.06 0.05 0.04 0.04 0.03 0.03 0.04 0.04 0.03 0.02 0.01 0.01 0.02 0.02 0.02 0.02 0.02 0.02 0.02 0.03
0.03 0.03 0.03 0.02 0.02 0.02 0.02 0.02 0.02 0.02 0.02 0.02 0.02 0.02 0.01 0.02 0.03 0.04 0.05 0.05 0.04 0.05 0.04 0.04 0.04 0.05 0.05 0.04 0.03 0.02 0.02 0.03 0.03 0.02 0.01 0.01 0.01 0.01 0.01 0.01 0.01 0.02 0.02
0.03 0.03 0.03 0.03 0.02 0.02 0.02 0.02 0.02 0.03 0.02 0.03 0.03 0.02 0.02 0.02 0.03 0.04 0.05 0.04 0.05 0.06 0.06 0.06 0.05 0.05 0.05 0.04 0.03 0.02 0.01 0.01 0.01 0.02 0.02 0.01 0.01 0.01 0.01 0.01 0.01 0.01 0.01
0.05 0.04 0.05 0.05 0.04 0.02 0.02 0.02 0.02 0.02 0.02 0.03 0.03 0.03 0.02 0.02 0.02 0.03 0.04 0.04 0.04 0.04 0.04 0.04 0.05 0.05 0.04 0.03 0.03 0.03 0.02 0.01 0.01 0.01 0.01 0.01 0.01 0.01 0.01 0.01 0.00 0.00 0.01
0.04 0.03 0.04 0.05 0.05 0.05 0.04 0.03 0.03 0.02 0.02 0.02 0.02 0.03 0.02 0.02 0.02 0.02 0.03 0.02 0.03 0.04 0.04 0.03 0.03 0.04 0.04 0.03 0.02 0.02 0.01 0.01 0.01 0.01 0.01 0.01 0.01 0.01 0.01 0.01 0.01 0.01 0.01
0.05 0.04 0.05 0.04 0.04 0.05 0.05 0.03 0.02 0.01 0.01 0.02 0.02 0.02 0.02 0.01 0.01 0.02 0.02 0.03 0.03 0.03 0.04 0.04 0.02 0.02 0.03 0.02 0.02 0.01 0.01 0.01 0.01 0.01 0.01 0.01 0.01 0.01 0.01 0.01 0.01 0.01 0.01
0.05 0.05 0.06 0.06 0.06 0.06 0.06 0.05 0.04 0.02 0.02 0.01 0.01 0.01 0.01 0.01 0.02 0.02 0.02 0.02 0.03 0.03 0.04 0.04 0.03 0.02 0.01 0.01 0.01 0.01 0.01 0.01 0.01 0.01 0.01 0.01 0.01 0.01 0.01 0.01 0.01 0.01 0.01
0.04 0.05 0.06 0.07 0.06 0.05 0.05 0.06 0.07 0.08 0.07 0.05 0.04 0.04 0.04 0.04 0.04 0.04 0.05 0.06 0.05 0.05 0.05 0.04 0.04 0.03 0.02 0.02 0.02 0.02 0.02 0.02 0.02 0.02 0.02 0.02 0.02 0.01 0.01 0.01 0.02 0.02 0.01
0.04 0.05 0.06 0.07 0.07 0.06 0.04 0.04 0.04 0.04 0.06 0.07 0.07 0.06 0.06 0.05 0.05 0.05 0.06 0.07 0.08 0.08 0.08 0.08 0.06 0.06 0.05 0.04 0.03 0.04 0.04 0.04 0.04 0.04 0.03 0.03 0.02 0.02 0.02 0.02 0.02 0.02 0.02
0.03 0.04 0.04 0.05 0.06 0.07 0.05 0.05 0.04 0.03 0.02 0.03 0.04 0.04 0.04 0.04 0.04 0.04 0.04 0.04 0.05 0.05 0.05 0.05 0.05 0.05 0.05 0.06 0.05 0.05 0.04 0.04 0.04 0.05 0.05 0.04 0.03 0.02 0.02 0.02 0.02 0.02 0.02
0.01 0.02 0.02 0.03 0.04 0.06 0.06 0.05 0.03 0.03 0.02 0.02 0.02 0.02 0.02 0.02 0.02 0.02 0.02 0.03 0.03 0.04 0.04 0.04 0.04 0.04 0.04 0.05 0.06 0.06 0.06 0.05 0.05 0.05 0.05 0.05 0.04 0.03 0.03 0.02 0.02 0.02 0.02
0.01 0.01 0.01 0.01 0.02 0.02 0.03 0.03 0.02 0.02 0.01 0.02 0.02 0.01 0.01 0.01 0.01 0.02 0.02 0.02 0.02 0.03 0.03 0.03 0.03 0.04 0.05 0.05 0.06 0.07 0.07 0.07 0.07 0.06 0.05 0.05 0.04 0.04 0.04 0.03 0.03 0.03 0.03
0.01 0.01 0.01 0.01 0.01 0.01 0.01 0.01 0.01 0.01 0.01 0.01 0.01 0.01 0.01 0.01 0.01 0.01 0.01 0.01 0.01 0.02 0.02 0.03 0.03 0.02 0.02 0.03 0.05 0.05 0.06 0.06 0.06 0.05 0.04 0.04 0.04 0.04 0.04 0.04 0.03 0.03 0.02
0.01 0.01 0.01 0.01 0.01 0.01 0.01 0.01 0.01 0.01 0.01 0.01 0.01 0.01 0.02 0.02 0.02 0.01 0.01 0.01 0.01 0.01 0.02 0.02 0.03 0.03 0.02 0.02 0.02 0.02 0.02 0.03 0.04 0.03 0.02 0.02 0.02 0.02 0.02 0.03 0.03 0.03 0.03
0.01 0.01 0.01 0.01 0.01 0.01 0.01 0.01 0.01 0.02 0.02 0.02 0.02 0.02 0.02 0.02 0.02 0.01 0.01 0.01 0.01 0.02 0.01 0.01 0.01 0.02 0.02 0.02 0.01 0.01 0.02 0.03 0.03 0.02 0.02 0.02 0.01 0.01 0.02 0.02 0.03 0.03 0.03
0.03 0.02 0.01 0.01 0.01 0.01 0.01 0.01 0.01 0.01 0.01 0.01 0.03 0.04 0.03 0.02 0.02 0.02 0.02 0.02 0.02 0.02 0.02 0.02 0.02 0.03 0.03 0.03 0.02 0.01 0.01 0.02 0.02 0.01 0.01 0.01 0.01 0.02 0.02 0.02 0.02 0.03 0.03
0.03 0.03 0.02 0.02 0.02 0.01 0.01 0.01 0.01 0.02 0.02 0.02 0.03 0.04 0.03 0.02 0.02 0.02 0.02 0.02 0.01 0.02 0.03 0.04 0.04 0.05 0.05 0.03 0.02 0.03 0.02 0.02 0.02 0.02 0.03 0.03 0.03 0.04 0.04 0.03 0.02 0.03 0.03
MSLP
1008.69 1009.71 1010.69 1011.61 1012.45 1013.18 1013.82 1014.37 1014.86 1015.30 1015.69 1016.02 1016.28 1016.47 1016.56 1016.57 1016.49 1016.36 1016.20 1016.04 1015.93 1015.86 1015.84 1015.87 1015.91 1015.93 1015.92 1015.85 1015.71 1015.52 1015.28 1015.03 1014.78 1014.55 1014.36 1014.20 1014.06 1013.95 1013.85 1013.77 1013.71 1013.70 1013.74
1008.24 1009.32 1010.36 1011.33 1012.21 1012.99 1013.67 1014.27 1014.80 1015.26 1015.66 1015.99 1016.24 1016.41 1016.48 1016.47 1016.38 1016.24 1016.08 1015.93 1015.81 1015.73 1015.69 1015.67 1015.66 1015.64 1015.58 1015.47 1015.32 1015.13 1014.93 1014.73 1014.55 1014.40 1014.28 1014.18 1014.08 1013.98 1013.87 1013.75 1013.63 1013.55 1013.52
1007.93 1009.07 1010.16 1011.17 1012.08 1012.89 1013.60 1014.21 1014.75 1015.21 1015.60 1015.92 1016.15 1016.30 1016.36 1016.34 1016.25 1016.13 1015.98 1015.84 1015.73 1015.64 1015.58 1015.54 1015.49 1015.42 1015.32 1015.18 1015.02 1014.84 1014.66 1014.51 1014.39 1014.30 1014.24 1014.19 1014.12 1014.04 1013.91 1013.76 1013.60 1013.46 1013.37
1007.75 1008.96 1010.10 1011.14 1012.08 1012.89 1013.60 1014.21 1014.73 1015.17 1015.54 1015.83 1016.04 1016.17 1016.23 1016.21 1016.14 1016.03 1015.91 1015.79 1015.70 1015.62 1015.55 1015.48 1015.40 1015.30 1015.16 1014.99 1014.81 1014.64 1014.48 1014.35 1014.27 1014.22 1014.20 1014.18 1014.14 1014.06 1013.94 1013.77 1013.59 1013.41 1013.27
1007.70 1008.96 1010.14 1011.21 1012.15 1012.96 1013.65 1014.23 1014.72 1015.14 1015.48 1015.74 1015.94 1016.07 1016.12 1016.12 1016.07 1015.99 1015.90 1015.81 1015.73 1015.65 1015.58 1015.49 1015.38 1015.24 1015.07 1014.88 1014.68 1014.49 1014.33 1014.21 1014.14 1014.11 1014.10 1014.10 1014.07 1014.00 1013.89 1013.72 1013.53 1013.34 1013.19
1007.71 1009.02 1010.24 1011.32 1012.26 1013.05 1013.71 1014.27 1014.73 1015.11 1015.43 1015.69 1015.88 1016.01 1016.08 1016.11 1016.09 1016.04 1015.97 1015.90 1015.83 1015.75 1015.66 1015.55 1015.41 1015.24 1015.03 1014.81 1014.58 1014.36 1014.18 1014.05 1013.96 1013.92 1013.91 1013.90 1013.88 1013.82 1013.72 1013.57 1013.40 1013.23 1013.07
1007.75 1009.09 1010.32 1011.41 1012.34 1013.12 1013.76 1014.29 1014.73 1015.10 1015.41 1015.67 1015.88 1016.03 1016.13 1016.19 1016.20 1016.18 1016.13 1016.07 1016.00 1015.91 1015.80 1015.66 1015.48 1015.27 1015.02 1014.75 1014.48 1014.23 1014.01 1013.84 1013.72 1013.65 1013.61 1013.58 1013.55 1013.49 1013.41 1013.29 1013.16 1013.02 1012.91
1007.76 1009.12 1010.36 1011.44 1012.36 1013.12 1013.76 1014.28 1014.72 1015.10 1015.43 1015.71 1015.95 1016.14 1016.28 1016.37 1016.41 1016.41 1016.38 1016.32 1016.23 1016.11 1015.97 1015.79 1015.57 1015.31 1015.02 1014.72 1014.41 1014.11 1013.84 1013.62 1013.45 1013.32 1013.23 1013.16 1013.11 1013.05 1012.98 1012.90 1012.81 1012.73 1012.66
1007.75 1009.10 1010.33 1011.40 1012.31 1013.07 1013.71 1014.24 1014.70 1015.11 1015.48 1015.80 1016.09 1016.33 1016.51 1016.63 1016.70 1016.72 1016.69 1016.61 1016.50 1016.35 1016.17 1015.95 1015.69 1015.39 1015.07 1014.73 1014.37 1014.03 1013.72 1013.44 1013.20 1013.00 1012.85 1012.73 1012.63 1012.55 1012.48 1012.42 1012.37 1012.34 1012.33
1007.71 1009.04 1010.25 1011.31 1012.22 1012.99 1013.64 1014.20 1014.70 1015.15 1015.57 1015.95 1016.28 1016.57 1016.80 1016.96 1017.05 1017.07 1017.03 1016.94 1016.80 1016.62 1016.40 1016.15 1015.86 1015.54 1015.19 1014.83 1014.45 1014.07 1013.71 1013.37 1013.06 1012.79 1012.56 1012.36 1012.20 1012.07 1011.98 1011.92 1011.89 1011.90 1011.93
1007.69 1008.99 1010.17 1011.22 1012.13 1012.91 1013.59 1014.19 1014.73 1015.23 1015.70 1016.14 1016.52 1016.85 1017.12 1017.30 1017.41 1017.43 1017.39 1017.28 1017.12 1016.92 1016.68 1016.42 1016.12 1015.80 1015.45 1015.08 1014.69 1014.29 1013.90 1013.51 1013.13 1012.78 1012.45 1012.16 1011.91 1011.71 1011.56 1011.46 1011.42 1011.42 1011.47
1007.71 1008.97 1010.13 1011.17 1012.08 1012.88 1013.59 1014.23 1014.81 1015.36 1015.88 1016.36 1016.79 1017.15 1017.44 1017.64 1017.76 1017.79 1017.74 1017.63 1017.47 1017.27 1017.04 1016.78 1016.50 1016.20 1015.87 1015.52 1015.14 1014.74 1014.33 1013.89 1013.45 1013.02 1012.59 1012.20 1011.84 1011.53 1011.28 1011.10 1011.00 1010.96 1010.98
1007.80 1009.02 1010.16 1011.19 1012.10 1012.92 1013.65 1014.33 1014.96 1015.55 1016.10 1016.61 1017.06 1017.45 1017.75 1017.96 1018.09 1018.13 1018.09 1017.99 1017.85 1017.67 1017.47 1017.25 1017.01 1016.76 1016.48 1016.17 1015.82 1015.44 1015.01 1014.54 1014.05 1013.53 1013.00 1012.49 1012.00 1011.56 1011.18 1010.88 1010.66 1010.54 1010.49
1007.93 1009.13 1010.25 1011.26 1012.19 1013.02 1013.78 1014.48 1015.13 1015.75 1016.32 1016.85 1017.31 1017.71 1018.02 1018.24 1018.38 1018.44 1018.42 1018.36 1018.25 1018.12 1017.98 1017.82 1017.65 1017.46 1017.25 1016.99 1016.69 1016.32 1015.90 1015.41 1014.87 1014.27 1013.65 1013.01 1012.38 1011.79 1011.26 1010.81 1010.45 1010.19 1010.04
1008.09 1009.26 1010.36 1011.37 1012.29 1013.14 1013.91 1014.63 1015.30 1015.93 1016.52 1017.05 1017.51 1017.91 1018.23 1018.46 1018.62 1018.71 1018.74 1018.72 1018.68 1018.62 1018.54 1018.46 1018.37 1018.26 1018.11 1017.91 1017.66 1017.32 1016.91 1016.41 1015.83 1015.17 1014.46 1013.71 1012.96 1012.22 1011.53 1010.91 1010.38 1009.96 1009.65
1008.22 1009.37 1010.45 1011.45 1012.37 1013.22 1014.00 1014.73 1015.42 1016.05 1016.64 1017.17 1017.64 1018.04 1018.37 1018.62 1018.81 1018.94 1019.02 1019.07 1019.10 1019.11 1019.11 1019.11 1019.10 1019.05 1018.97 1018.83 1018.61 1018.31 1017.91 1017.41 1016.81 1016.11 1015.34 1014.51 1013.64 1012.77 1011.93 1011.15 1010.45 1009.85 1009.37
1008.29 1009.41 1010.47 1011.45 1012.37 1013.22 1014.01 1014.75 1015.44 1016.08 1016.67 1017.20 1017.68 1018.09 1018.44 1018.72 1018.95 1019.13 1019.27 1019.38 1019.47 1019.56 1019.63 1019.70 1019.74 1019.76 1019.72 1019.62 1019.45 1019.17 1018.79 1018.30 1017.70 1016.99 1016.18 1015.30 1014.36 1013.40 1012.45 1011.52 1010.67 1009.90 1009.24
1008.30 1009.38 1010.40 1011.37 1012.27 1013.12 1013.91 1014.66 1015.35 1016.01 1016.61 1017.16 1017.65 1018.08 1018.45 1018.77 1019.04 1019.26 1019.46 1019.63 1019.78 1019.92 1020.04 1020.15 1020.24 1020.29 1020.28 1020.21 1020.05 1019.80 1019.45 1018.98 1018.40 1017.70 1016.90 1016.01 1015.05 1014.05 1013.01 1011.99 1011.01 1010.08 1009.26
1008.27 1009.30 1010.29 1011.22 1012.11 1012.95 1013.74 1014.50 1015.21 1015.87 1016.49 1017.06 1017.57 1018.03 1018.44 1018.79 1019.10 1019.36 1019.59 1019.80 1019.99 1020.16 1020.31 1020.44 1020.54 1020.60 1020.60 1020.53 1020.39 1020.16 1019.83 1019.40 1018.86 1018.21 1017.45 1016.60 1015.66 1014.65 1013.59 1012.51 1011.44 1010.40 1009.42
1008.27 1009.24 1010.17 1011.07 1011.94 1012.76 1013.56 1014.32 1015.05 1015.73 1016.38 1016.97 1017.51 1018.00 1018.43 1018.81 1019.15 1019.44 1019.69 1019.92 1020.12 1020.29 1020.44 1020.56 1020.64 1020.68 1020.68 1020.61 1020.47 1020.25 1019.95 1019.57 1019.08 1018.50 1017.81 1017.03 1016.14 1015.18 1014.13 1013.04 1011.91 1010.79 1009.69
1008.34 1009.25 1010.13 1010.99 1011.82 1012.64 1013.44 1014.21 1014.95 1015.66 1016.32 1016.95 1017.51 1018.02 1018.48 1018.88 1019.23 1019.52 1019.78 1020.00 1020.18 1020.33 1020.45 1020.54 1020.59 1020.60 1020.57 1020.48 1020.34 1020.13 1019.86 1019.52 1019.10 1018.59 1017.99 1017.29 1016.49 1015.58 1014.59 1013.51 1012.37 1011.20 1010.02
1008.54 1009.38 1010.21 1011.03 1011.84 1012.64 1013.43 1014.21 1014.97 1015.70 1016.39 1017.03 1017.62 1018.15 1018.62 1019.02 1019.37 1019.66 1019.89 1020.08 1020.23 1020.34 1020.42 1020.46 1020.46 1020.43 1020.36 1020.25 1020.09 1019.89 1019.64 1019.34 1018.97 1018.53 1018.01 1017.40 1016.68 1015.85 1014.91 1013.88 1012.75 1011.55 1010.32
1008.88 1009.66 1010.44 1011.22 1012.01 1012.80 1013.59 1014.37 1015.14 1015.89 1016.60 1017.26 1017.86 1018.40 1018.87 1019.27 1019.60 1019.86 1020.07 1020.22 1020.32 1020.38 1020.40 1020.39 1020.35 1020.27 1020.16 1020.01 1019.84 1019.63 1019.38 1019.10 1018.77 1018.38 1017.91 1017.36 1016.71 1015.95 1015.08 1014.08 1012.98 1011.79 1010.53
1009.33 1010.06 1010.79 1011.55 1012.31 1013.09 1013.88 1014.67 1015.45 1016.21 1016.93 1017.60 1018.21 1018.75 1019.22 1019.60 1019.91 1020.15 1020.32 1020.43 1020.49 1020.51 1020.48 1020.42 1020.32 1020.20 1020.05 1019.87 1019.66 1019.43 1019.17 1018.88 1018.55 1018.18 1017.74 1017.22 1016.61 1015.90 1015.07 1014.11 1013.04 1011.87 1010.61
1009.82 1010.51 1011.22 1011.95 1012.70 1013.47 1014.25 1015.04 1015.83 1016.60 1017.33 1018.01 1018.63 1019.17 1019.63 1020.00 1020.30 1020.51 1020.66 1020.74 1020.76 1020.74 1020.67 1020.57 1020.44 1020.27 1020.08 1019.86 1019.62 1019.35 1019.05 1018.73 1018.37 1017.97 1017.52 1017.00 1016.40 1015.70 1014.89 1013.97 1012.93 1011.79 1010.55
1010.31 1010.97 1011.65 1012.36 1013.10 1013.86 1014.64 1015.44 1016.23 1017.00 1017.74 1018.43 1019.05 1019.59 1020.05 1020.43 1020.71 1020.92 1021.05 1021.12 1021.12 1021.08 1020.99 1020.86 1020.69 1020.50 1020.27 1020.00 1019.71 1019.39 1019.03 1018.65 1018.23 1017.78 1017.28 1016.72 1016.09 1015.39 1014.59 1013.69 1012.68 1011.57 1010.37
Thickness
5718 5717 5715 5711 5710 5708 5707 5705 5704 5703 5702 5700 5698 5696 5694 5692 5691 5688 5685 5683 5681 5680 5679 5677 5676 5676 5674 5673 5671 5670 5667 5665 5662 5665 5667 5668 5667 5667 5667 5666 5666 5666 5666
5714 5711 5708 5706 5704 5702 5701 5700 5699 5698 5697 5695 5693 5691 5688 5687 5685 5683 5681 5679 5676 5675 5674 5672 5671 5671 5669 5668 5666 5664 5662 5661 5658 5658 5659 5659 5659 5659 5659 5658 5658 5658 5659
5709 5706 5702 5700 5698 5696 5696 5695 5694 5693 5691 5690 5688 5685 5682 5681 5680 5678 5677 5675 5673 5672 5671 5669 5667 5665 5663 5662 5660 5658 5657 5657 5654 5652 5652 5652 5651 5652 5650 5650 5651 5651 5652
5703 5700 5697 5695 5694 5693 5691 5690 5689 5687 5685 5684 5682 5680 5678 5677 5675 5673 5672 5670 5668 5667 5666 5665 5664 5662 5660 5658 5656 5654 5652 5649 5647 5645 5644 5644 5643 5644 5643 5642 5641 5643 5644
5697 5694 5693 5691 5690 5688 5686 5685 5684 5682 5681 5679 5677 5676 5674 5672 5671 5668 5667 5666 5663 5662 5661 5660 5660 5659 5657 5655 5653 5649 5646 5643 5640 5638 5637 5636 5636 5635 5635 5635 5635 5635 5636
5691 5689 5688 5686 5684 5682 5680 5679 5678 5677 5676 5674 5672 5670 5669 5668 5666 5664 5662 5660 5658 5657 5656 5655 5655 5653 5652 5650 5648 5645 5642 5638 5635 5632 5630 5629 5629 5630 5630 5630 5628 5627 5627
5685 5683 5681 5680 5678 5676 5675 5673 5671 5671 5670 5668 5667 5665 5663 5661 5660 5658 5656 5654 5653 5652 5651 5649 5649 5648 5645 5643 5641 5640 5638 5636 5634 5630 5626 5626 5625 5626 5624 5623 5622 5621 5622
5678 5676 5675 5673 5672 5670 5669 5667 5666 5665 5663 5662 5661 5660 5657 5656 5654 5652 5650 5648 5646 5646 5645 5644 5642 5640 5639 5636 5634 5632 5631 5630 5629 5627 5626 5625 5624 5623 5621 5620 5618 5617 5617
5672 5670 5669 5668 5666 5664 5663 5662 5661 5659 5657 5656 5655 5654 5652 5651 5649 5646 5644 5641 5639 5638 5638 5637 5635 5633 5632 5630 5627 5625 5624 5624 5624 5624 5622 5621 5620 5618 5616 5613 5611 5609 5609
5667 5666 5665 5663 5661 5659 5658 5657 5656 5654 5653 5651 5650 5649 5647 5645 5643 5641 5638 5635 5632 5631 5630 5630 5628 5626 5624 5622 5620 5618 5616 5617 5617 5616 5614 5614 5613 5612 5611 5609 5606 5603 5601
5662 5661 5659 5658 5656 5655 5654 5653 5651 5649 5647 5645 5643 5642 5640 5639 5637 5635 5632 5629 5626 5624 5622 5622 5621 5620 5618 5615 5614 5612 5612 5611 5610 5608 5607 5607 5606 5605 5604 5603 5602 5600 5597
5655 5653 5652 5651 5651 5651 5648 5646 5644 5642 5639 5637 5635 5633 5633 5632 5631 5629 5626 5624 5621 5617 5616 5615 5614 5613 5611 5609 5607 5607 5605 5604 5602 5601 5599 5599 5598 5598 5598 5598 5597 5596 5596
5647 5645 5645 5645 5643 5643 5641 5639 5637 5635 5632 5629 5627 5625 5625 5625 5624 5622 5619 5617 5615 5611 5610 5609 5608 5606 5604 5602 5602 5600 5598 5596 5595 5593 5593 5593 5593 5592 5592 5591 5591 5590 5590
5639 5638 5637 5638 5636 5635 5634 5632 5630 5628 5625 5623 5620 5618 5617 5617 5616 5614 5612 5609 5607 5605 5603 5602 5600 5599 5597 5596 5595 5593 5591 5590 5589 5588 5588 5587 5586 5585 5584 5583 5582 5582 5581
5632 5632 5631 5631 5630 5628 5626 5625 5624 5623 5621 5618 5616 5614 5611 5610 5611 5609 5606 5603 5601 5598 5595 5593 5591 5590 5589 5588 5586 5585 5584 5583 5582 5582 5581 5580 5579 5578 5577 5576 5575 5574 5573
5624 5624 5623 5623 5623 5621 5619 5618 5618 5617 5616 5615 5612 5609 5608 5607 5605 5602 5600 5598 5595 5592 5588 5585 5584 5583 5582 5582 5580 5579 5577 5577 5577 5576 5575 5574 5573 5572 5571 5570 5569 5567 5567
5617 5616 5616 5616 5616 5614 5612 5611 5608 5608 5608 5607 5605 5604 5602 5600 5598 5596 5593 5591 5588 5585 5581 5580 5578 5578 5577 5576 5575 5574 5573 5572 5571 5570 5570 5569 5567 5566 5564 5563 5562 5561 5561
5610 5610 5610 5609 5608 5607 5606 5604 5602 5600 5598 5598 5598 5597 5595 5594 5592 5590 5587 5583 5580 5578 5576 5575 5574 5573 5572 5570 5570 5570 5569 5568 5566 5565 5564 5563 5562 5560 5559 5558 5557 5556 5555
5604 5603 5602 5602 5601 5600 5599 5597 5595 5594 5592 5591 5590 5589 5588 5587 5584 5582 5580 5577 5575 5573 5572 5570 5569 5568 5567 5566 5565 5565 5564 5563 5561 5560 5559 5558 5557 5555 5554 5553 5552 5551 5550
5598 5598 5597 5595 5594 5593 5592 5590 5588 5587 5585 5584 5583 5582 5580 5578 5576 5574 5572 5571 5569 5568 5567 5566 5565 5564 5562 5561 5560 5559 5558 5557 5556 5554 5554 5552 5551 5550 5549 5548 5547 5546 5545
5591 5590 5590 5588 5587 5586 5585 5583 5582 5580 5578 5577 5576 5576 5574 5572 5570 5568 5567 5566 5565 5564 5562 5560 5560 5559 5557 5555 5554 5553 5552 5551 5550 5549 5548 5547 5546 5545 5544 5544 5543 5542 5541
5583 5583 5582 5581 5580 5579 5577 5576 5574 5573 5571 5570 5569 5568 5566 5564 5563 5562 5561 5561 5560 5558 5557 5555 5554 5552 5551 5549 5547 5546 5545 5544 5544 5543 5542 5542 5541 5540 5539 5538 5537 5537 5536
5577 5577 5575 5575 5574 5573 5571 5569 5567 5565 5564 5563 5561 5560 5558 5557 5556 5555 5554 5553 5552 5551 5550 5549 5547 5546 5544 5542 5541 5540 5539 5538 5537 5537 5536 5536 5536 5535 5534 5533 5533 5532 5532
5570 5569 5568 5568 5567 5566 5564 5562 5560 5559 5557 5555 5554 5552 5551 5550 5549 5548 5547 5547 5545 5544 5543 5542 5541 5539 5538 5536 5535 5534 5533 5533 5532 5531 5531 5530 5530 5529 5529 5528 5528 5528 5528
5562 5562 5561 5561 5560 5558 5557 5555 5553 5551 5550 5548 5546 5544 5543 5542 5541 5540 5539 5538 5538 5537 5535 5534 5533 5532 5530 5529 5527 5527 5526 5526 5526 5525 5525 5525 5524 5524 5523 5523 5522 5522 5522
5555 5555 5554 5553 5552 5550 5549 5547 5544 5543 5541 5539 5538 5536 5535 5534 5533 5532 5531 5530 5529 5528 5527 5526 5525 5523 5522 5521 5520 5519 5518 5518 5518 5518 5518 5518 5518 5517 5517 5517 5517 5516 5517